Location: *
(51.5000°N, 0.1100°W)
Time: 20:44:45
(UTC+00:00)

Cosmos 1697 Rocket - Pass Details

Date: 25 May 2024
Orbit: 833 x 842 km, 71.0° (Epoch: 16 June)

Event Time Altitude Azimuth Distance (km) Brightness Sun altitude
Rises 00:23:54 0° 323° (NW) 3,399 6.6 -17.3°
Reaches altitude 10° 00:26:41 10° 311° (NW) 2,459 5.6 -17.2°
Maximum altitude 00:31:16 27° 256° (WSW) 1,576 3.9 -17.1°
Enters shadow 00:33:17 21° 224° (SW) 1,774 3.9 -17.1°
